Time,TemperatureF,DewpointF,PressureIn,WindDirection,WindDirectionDegrees,WindSpeedMPH,WindSpeedGustMPH,Humidity,HourlyPrecipIn,Conditions,Clouds,dailyrainin,SoftwareType,DateUTC
2013-04-13 00:00:00,61.5,46.6,29.92,ESE,106,2.0,4.0,58,0.00,,,0.00,VWS V14.01,2013-04-13 05:00:00,
2013-04-13 00:05:00,61.1,46.7,29.92,ESE,117,4.0,5.0,59,0.00,,,0.00,VWS V14.01,2013-04-13 05:05:00,
2013-04-13 00:10:00,61.0,46.6,29.93,ESE,107,3.0,6.0,59,0.00,,,0.00,VWS V14.01,2013-04-13 05:10:00,
2013-04-13 00:15:00,61.0,47.0,29.93,ESE,113,3.0,5.0,60,0.00,,,0.00,VWS V14.01,2013-04-13 05:15:00,
2013-04-13 00:20:00,60.9,46.9,29.93,ESE,115,4.0,5.0,60,0.00,,,0.00,VWS V14.01,2013-04-13 05:20:00,
2013-04-13 00:25:00,60.9,46.9,29.93,ESE,113,4.0,5.0,60,0.00,,,0.00,VWS V14.01,2013-04-13 05:25:00,
2013-04-13 00:30:00,60.7,47.2,29.93,ESE,104,4.0,6.0,61,0.00,,,0.00,VWS V14.01,2013-04-13 05:30:00,
2013-04-13 00:35:00,60.9,47.4,29.93,ESE,112,5.0,7.0,61,0.00,,,0.00,VWS V14.01,2013-04-13 05:35:00,
2013-04-13 00:40:00,61.0,47.9,29.93,ESE,108,5.0,6.0,62,0.00,,,0.00,VWS V14.01,2013-04-13 05:40:00,
2013-04-13 00:45:00,60.8,48.1,29.93,ESE,109,5.0,6.0,63,0.00,,,0.00,VWS V14.01,2013-04-13 05:45:00,
2013-04-13 00:50:00,60.8,48.6,29.93,ESE,105,5.0,6.0,64,0.00,,,0.00,VWS V14.01,2013-04-13 05:50:00,
2013-04-13 00:55:00,61.0,48.8,29.93,ESE,120,4.0,6.0,64,0.00,,,0.00,VWS V14.01,2013-04-13 05:55:00,
2013-04-13 01:00:00,60.9,49.1,29.93,ESE,111,5.0,6.0,65,0.00,,,0.00,VWS V14.01,2013-04-13 06:00:00,
2013-04-13 01:04:00,61.1,49.3,29.93,ESE,113,4.0,7.0,65,0.00,,,0.00,VWS V14.01,2013-04-13 06:04:00,
2013-04-13 01:05:00,61.1,49.3,29.93,ESE,108,5.0,7.0,65,0.00,,,0.00,VWS V14.01,2013-04-13 06:05:00,
2013-04-13 01:09:00,61.1,49.7,29.93,East,94,2.0,7.0,66,0.00,,,0.00,VWS V14.01,2013-04-13 06:09:00,
2013-04-13 01:10:00,61.1,49.3,29.93,East,87,2.0,7.0,65,0.00,,,0.00,VWS V14.01,2013-04-13 06:10:00,
2013-04-13 01:14:00,60.9,49.5,29.93,East,82,2.0,4.0,66,0.00,,,0.00,VWS V14.01,2013-04-13 06:14:00,
2013-04-13 01:15:00,60.8,49.4,29.93,East,82,3.0,4.0,66,0.00,,,0.00,VWS V14.01,2013-04-13 06:15:00,
2013-04-13 01:19:00,60.5,49.5,29.93,East,89,1.0,3.0,67,0.00,,,0.00,VWS V14.01,2013-04-13 06:19:00,
2013-04-13 01:20:00,60.5,49.5,29.93,East,88,1.0,3.0,67,0.00,,,0.00,VWS V14.01,2013-04-13 06:20:00,
2013-04-13 01:24:00,60.5,49.5,29.93,East,98,1.0,7.0,67,0.00,,,0.00,VWS V14.01,2013-04-13 06:24:00,
2013-04-13 01:25:00,60.6,49.6,29.93,East,91,2.0,7.0,67,0.00,,,0.00,VWS V14.01,2013-04-13 06:25:00,
2013-04-13 01:29:00,60.8,49.8,29.93,ESE,118,4.0,6.0,67,0.00,,,0.00,VWS V14.01,2013-04-13 06:29:00,
2013-04-13 01:30:00,60.8,49.8,29.93,ESE,106,3.0,6.0,67,0.00,,,0.00,VWS V14.01,2013-04-13 06:30:00,
2013-04-13 01:34:00,61.0,50.0,29.93,ESE,123,3.0,6.0,67,0.00,,,0.00,VWS V14.01,2013-04-13 06:34:00,
2013-04-13 01:35:00,61.0,50.0,29.93,SE,132,9.0,9.0,67,0.00,,,0.00,VWS V14.01,2013-04-13 06:35:00,
2013-04-13 01:39:00,61.2,49.8,29.93,SE,136,3.0,8.0,66,0.00,,,0.00,VWS V14.01,2013-04-13 06:39:00,
2013-04-13 01:40:00,61.2,49.8,29.93,ESE,109,4.0,8.0,66,0.00,,,0.00,VWS V14.01,2013-04-13 06:40:00,
2013-04-13 01:45:00,61.3,49.5,29.93,ESE,112,3.0,6.0,65,0.00,,,0.00,VWS V14.01,2013-04-13 06:45:00,
2013-04-13 01:50:00,61.5,49.2,29.93,SE,139,4.0,8.0,64,0.00,,,0.00,VWS V14.01,2013-04-13 06:50:00,
2013-04-13 01:55:00,61.5,48.8,29.93,SE,135,5.0,7.0,63,0.00,,,0.00,VWS V14.01,2013-04-13 06:55:00,
2013-04-13 02:00:00,61.5,48.4,29.92,SSE,149,5.0,8.0,62,0.00,,,0.00,VWS V14.01,2013-04-13 07:00:00,
2013-04-13 02:05:00,61.3,48.2,29.92,ESE,116,4.0,8.0,62,0.00,,,0.00,VWS V14.01,2013-04-13 07:05:00,
2013-04-13 02:10:00,61.1,48.0,29.93,ESE,106,3.0,7.0,62,0.00,,,0.00,VWS V14.01,2013-04-13 07:10:00,
2013-04-13 02:15:00,60.7,48.0,29.93,ESE,112,3.0,7.0,63,0.00,,,0.00,VWS V14.01,2013-04-13 07:15:00,
2013-04-13 02:20:00,60.1,47.9,29.92,East,90,2.0,6.0,64,0.00,,,0.00,VWS V14.01,2013-04-13 07:20:00,
2013-04-13 02:25:00,59.3,48.0,29.92,ENE,77,3.0,3.0,66,0.00,,,0.00,VWS V14.01,2013-04-13 07:25:00,
2013-04-13 02:30:00,58.5,48.0,29.92,East,83,3.0,3.0,68,0.00,,,0.00,VWS V14.01,2013-04-13 07:30:00,
2013-04-13 02:35:00,58.1,48.0,29.92,East,82,2.0,2.0,69,0.00,,,0.00,VWS V14.01,2013-04-13 07:35:00,
2013-04-13 02:40:00,57.7,47.6,29.92,ENE,71,3.0,3.0,69,0.00,,,0.00,VWS V14.01,2013-04-13 07:40:00,
2013-04-13 02:45:00,57.6,47.5,29.92,ENE,77,2.0,3.0,69,0.00,,,0.00,VWS V14.01,2013-04-13 07:45:00,
2013-04-13 02:50:00,57.2,47.1,29.91,ENE,75,2.0,2.0,69,0.00,,,0.00,VWS V14.01,2013-04-13 07:50:00,
2013-04-13 02:55:00,56.4,46.8,29.91,ENE,76,1.0,3.0,70,0.00,,,0.00,VWS V14.01,2013-04-13 07:55:00,
2013-04-13 03:00:00,55.8,46.5,29.91,ENE,76,0.0,1.0,71,0.00,,,0.00,VWS V14.01,2013-04-13 08:00:00,
2013-04-13 03:05:00,55.4,46.5,29.91,ENE,77,1.0,2.0,72,0.00,,,0.00,VWS V14.01,2013-04-13 08:05:00,
2013-04-13 03:10:00,55.0,46.2,29.91,ENE,77,0.0,2.0,72,0.00,,,0.00,VWS V14.01,2013-04-13 08:10:00,
2013-04-13 03:15:00,54.6,45.8,29.91,ENE,76,1.0,2.0,72,0.00,,,0.00,VWS V14.01,2013-04-13 08:15:00,
2013-04-13 03:20:00,54.3,45.5,29.91,East,80,2.0,3.0,72,0.00,,,0.00,VWS V14.01,2013-04-13 08:20:00,
2013-04-13 03:25:00,54.7,45.5,29.91,East,80,1.0,3.0,71,0.00,,,0.00,VWS V14.01,2013-04-13 08:25:00,
2013-04-13 03:30:00,54.5,45.3,29.91,ENE,74,2.0,2.0,71,0.00,,,0.00,VWS V14.01,2013-04-13 08:30:00,
2013-04-13 03:35:00,54.9,45.7,29.91,East,80,1.0,4.0,71,0.00,,,0.00,VWS V14.01,2013-04-13 08:35:00,
2013-04-13 03:40:00,55.5,45.5,29.91,East,87,3.0,3.0,69,0.00,,,0.00,VWS V14.01,2013-04-13 08:40:00,
2013-04-13 03:45:00,55.8,45.4,29.91,ESE,105,3.0,3.0,68,0.00,,,0.00,VWS V14.01,2013-04-13 08:45:00,
2013-04-13 03:50:00,56.1,45.7,29.90,East,99,4.0,4.0,68,0.00,,,0.00,VWS V14.01,2013-04-13 08:50:00,
2013-04-13 03:55:00,55.5,45.5,29.90,East,88,2.0,3.0,69,0.00,,,0.00,VWS V14.01,2013-04-13 08:55:00,
2013-04-13 04:00:00,55.1,45.5,29.90,ENE,73,0.0,1.0,70,0.00,,,0.00,VWS V14.01,2013-04-13 09:00:00,
2013-04-13 04:05:00,54.6,45.4,29.90,ENE,73,0.0,0.0,71,0.00,,,0.00,VWS V14.01,2013-04-13 09:05:00,
2013-04-13 04:10:00,54.5,45.3,29.90,ENE,71,0.0,0.0,71,0.00,,,0.00,VWS V14.01,2013-04-13 09:10:00,
2013-04-13 04:15:00,54.3,45.1,29.90,ENE,73,1.0,1.0,71,0.00,,,0.00,VWS V14.01,2013-04-13 09:15:00,
2013-04-13 04:20:00,54.3,45.5,29.90,ENE,73,0.0,0.0,72,0.00,,,0.00,VWS V14.01,2013-04-13 09:20:00,
2013-04-13 04:25:00,54.3,45.1,29.90,ENE,73,0.0,0.0,71,0.00,,,0.00,VWS V14.01,2013-04-13 09:25:00,
2013-04-13 04:26:00,54.3,45.1,29.90,ENE,73,0.0,0.0,71,0.00,,,0.00,VWS V14.01,2013-04-13 09:26:00,
2013-04-13 04:30:00,53.9,45.1,29.90,ENE,73,0.0,0.0,72,0.00,,,0.00,VWS V14.01,2013-04-13 09:30:00,
2013-04-13 04:31:00,53.8,45.0,29.90,ENE,73,0.0,0.0,72,0.00,,,0.00,VWS V14.01,2013-04-13 09:31:00,
2013-04-13 04:35:00,53.6,45.2,29.90,ENE,72,0.0,0.0,73,0.00,,,0.00,VWS V14.01,2013-04-13 09:35:00,
2013-04-13 04:36:00,53.5,45.1,29.90,ENE,71,0.0,0.0,73,0.00,,,0.00,VWS V14.01,2013-04-13 09:36:00,
2013-04-13 04:40:00,53.4,45.0,29.90,ENE,71,0.0,0.0,73,0.00,,,0.00,VWS V14.01,2013-04-13 09:40:00,
2013-04-13 04:41:00,53.3,44.9,29.90,ENE,71,0.0,0.0,73,0.00,,,0.00,VWS V14.01,2013-04-13 09:41:00,
2013-04-13 04:45:00,53.2,45.1,29.90,ENE,71,0.0,0.0,74,0.00,,,0.00,VWS V14.01,2013-04-13 09:45:00,
2013-04-13 04:46:00,53.1,45.0,29.90,ENE,72,0.0,0.0,74,0.00,,,0.00,VWS V14.01,2013-04-13 09:46:00,
2013-04-13 04:50:00,52.7,44.7,29.91,ENE,71,0.0,0.0,74,0.00,,,0.00,VWS V14.01,2013-04-13 09:50:00,
2013-04-13 04:51:00,52.5,44.5,29.91,ENE,73,1.0,1.0,74,0.00,,,0.00,VWS V14.01,2013-04-13 09:51:00,
2013-04-13 04:55:00,52.0,44.7,29.91,ENE,73,0.0,1.0,76,0.00,,,0.00,VWS V14.01,2013-04-13 09:55:00,
2013-04-13 04:56:00,52.1,44.8,29.91,ENE,73,0.0,0.0,76,0.00,,,0.00,VWS V14.01,2013-04-13 09:56:00,
2013-04-13 05:00:00,52.4,45.1,29.91,ENE,73,0.0,0.0,76,0.00,,,0.00,VWS V14.01,2013-04-13 10:00:00,
2013-04-13 05:01:00,52.5,44.8,29.91,ENE,71,0.0,0.0,75,0.00,,,0.00,VWS V14.01,2013-04-13 10:01:00,
2013-04-13 05:05:00,52.5,45.2,29.91,ENE,66,1.0,1.0,76,0.00,,,0.00,VWS V14.01,2013-04-13 10:05:00,
2013-04-13 05:07:00,52.5,45.2,29.91,ENE,66,0.0,1.0,76,0.00,,,0.00,VWS V14.01,2013-04-13 10:07:00,
2013-04-13 05:10:00,52.4,45.1,29.91,ENE,66,1.0,1.0,76,0.00,,,0.00,VWS V14.01,2013-04-13 10:10:00,
2013-04-13 05:12:00,52.4,45.1,29.91,ENE,67,0.0,1.0,76,0.00,,,0.00,VWS V14.01,2013-04-13 10:12:00,
2013-04-13 05:15:00,52.4,45.1,29.91,ENE,67,0.0,1.0,76,0.00,,,0.00,VWS V14.01,2013-04-13 10:15:00,
2013-04-13 05:17:00,52.3,45.0,29.90,ENE,66,0.0,0.0,76,0.00,,,0.00,VWS V14.01,2013-04-13 10:17:00,
2013-04-13 05:20:00,52.1,44.8,29.91,ENE,66,1.0,1.0,76,0.00,,,0.00,VWS V14.01,2013-04-13 10:20:00,
2013-04-13 05:22:00,51.9,44.9,29.90,ENE,68,0.0,1.0,77,0.00,,,0.00,VWS V14.01,2013-04-13 10:22:00,
2013-04-13 05:25:00,51.6,44.6,29.90,ENE,67,0.0,1.0,77,0.00,,,0.00,VWS V14.01,2013-04-13 10:25:00,
2013-04-13 05:27:00,51.4,44.8,29.90,ENE,68,0.0,0.0,78,0.00,,,0.00,VWS V14.01,2013-04-13 10:27:00,
2013-04-13 05:30:00,51.3,44.7,29.90,ENE,68,0.0,0.0,78,0.00,,,0.00,VWS V14.01,2013-04-13 10:30:00,
2013-04-13 05:32:00,51.4,45.1,29.90,ENE,67,0.0,0.0,79,0.00,,,0.00,VWS V14.01,2013-04-13 10:32:00,
2013-04-13 05:35:00,51.4,45.1,29.90,ENE,67,0.0,0.0,79,0.00,,,0.00,VWS V14.01,2013-04-13 10:35:00,
2013-04-13 05:37:00,51.6,45.3,29.90,ENE,67,0.0,1.0,79,0.00,,,0.00,VWS V14.01,2013-04-13 10:37:00,
2013-04-13 05:40:00,51.8,45.5,29.90,ENE,68,0.0,1.0,79,0.00,,,0.00,VWS V14.01,2013-04-13 10:40:00,
2013-04-13 05:42:00,52.0,45.4,29.90,ENE,67,0.0,0.0,78,0.00,,,0.00,VWS V14.01,2013-04-13 10:42:00,
2013-04-13 05:45:00,52.1,45.5,29.91,ENE,67,0.0,0.0,78,0.00,,,0.00,VWS V14.01,2013-04-13 10:45:00,
2013-04-13 05:47:00,52.1,45.5,29.91,ENE,67,0.0,0.0,78,0.00,,,0.00,VWS V14.01,2013-04-13 10:47:00,
2013-04-13 05:50:00,52.1,45.5,29.91,ENE,66,0.0,0.0,78,0.00,,,0.00,VWS V14.01,2013-04-13 10:50:00,
2013-04-13 05:52:00,52.1,45.5,29.90,ENE,67,0.0,0.0,78,0.00,,,0.00,VWS V14.01,2013-04-13 10:52:00,
2013-04-13 05:55:00,52.0,45.4,29.91,ENE,66,0.0,0.0,78,0.00,,,0.00,VWS V14.01,2013-04-13 10:55:00,
2013-04-13 05:57:00,51.8,45.2,29.91,ENE,66,0.0,0.0,78,0.00,,,0.00,VWS V14.01,2013-04-13 10:57:00,
2013-04-13 06:00:00,51.7,45.1,29.91,ENE,68,0.0,0.0,78,0.00,,,0.00,VWS V14.01,2013-04-13 11:00:00,
2013-04-13 06:02:00,51.6,45.3,29.91,ENE,67,0.0,0.0,79,0.00,,,0.00,VWS V14.01,2013-04-13 11:02:00,
2013-04-13 06:05:00,51.6,45.3,29.91,ENE,67,0.0,0.0,79,0.00,,,0.00,VWS V14.01,2013-04-13 11:05:00,
2013-04-13 06:08:00,51.4,45.1,29.91,ENE,67,0.0,0.0,79,0.00,,,0.00,VWS V14.01,2013-04-13 11:08:00,
2013-04-13 06:10:00,51.3,45.3,29.90,ENE,67,0.0,0.0,80,0.00,,,0.00,VWS V14.01,2013-04-13 11:10:00,
2013-04-13 06:13:00,51.2,45.2,29.91,ENE,66,0.0,0.0,80,0.00,,,0.00,VWS V14.01,2013-04-13 11:13:00,
2013-04-13 06:15:00,51.2,45.2,29.91,ENE,67,0.0,0.0,80,0.00,,,0.00,VWS V14.01,2013-04-13 11:15:00,
2013-04-13 06:18:00,51.2,45.6,29.90,ENE,59,0.0,0.0,81,0.00,,,0.00,VWS V14.01,2013-04-13 11:18:00,
2013-04-13 06:20:00,51.2,45.6,29.90,ENE,59,0.0,0.0,81,0.00,,,0.00,VWS V14.01,2013-04-13 11:20:00,
2013-04-13 06:22:00,51.4,45.8,29.90,ENE,59,0.0,0.0,81,0.00,,,0.00,VWS V14.01,2013-04-13 11:22:00,
2013-04-13 06:25:00,51.4,45.8,29.90,ENE,59,0.0,0.0,81,0.00,,,0.00,VWS V14.01,2013-04-13 11:25:00,
2013-04-13 06:28:00,51.3,45.7,29.90,ENE,59,0.0,0.0,81,0.00,,,0.00,VWS V14.01,2013-04-13 11:28:00,
2013-04-13 06:30:00,51.2,45.6,29.90,ENE,59,0.0,0.0,81,0.00,,,0.00,VWS V14.01,2013-04-13 11:30:00,
2013-04-13 06:33:00,51.0,45.4,29.90,ENE,59,0.0,0.0,81,0.00,,,0.00,VWS V14.01,2013-04-13 11:33:00,
2013-04-13 06:35:00,50.9,45.6,29.91,ENE,59,0.0,0.0,82,0.00,,,0.00,VWS V14.01,2013-04-13 11:35:00,
2013-04-13 06:38:00,50.9,45.6,29.91,ENE,59,0.0,0.0,82,0.00,,,0.00,VWS V14.01,2013-04-13 11:38:00,
2013-04-13 06:40:00,50.8,45.5,29.91,ENE,59,0.0,0.0,82,0.00,,,0.00,VWS V14.01,2013-04-13 11:40:00,
2013-04-13 06:43:00,50.8,45.8,29.91,ENE,59,0.0,0.0,83,0.00,,,0.00,VWS V14.01,2013-04-13 11:43:00,
2013-04-13 06:45:00,50.9,45.9,29.91,ENE,59,0.0,0.0,83,0.00,,,0.00,VWS V14.01,2013-04-13 11:45:00,
2013-04-13 06:48:00,51.0,46.0,29.91,ENE,59,0.0,0.0,83,0.00,,,0.00,VWS V14.01,2013-04-13 11:48:00,
2013-04-13 06:50:00,51.0,46.0,29.91,ENE,59,0.0,0.0,83,0.00,,,0.00,VWS V14.01,2013-04-13 11:50:00,
2013-04-13 06:53:00,51.0,46.0,29.91,ENE,59,0.0,0.0,83,0.00,,,0.00,VWS V14.01,2013-04-13 11:53:00,
2013-04-13 06:55:00,51.0,46.0,29.91,ENE,59,0.0,0.0,83,0.00,,,0.00,VWS V14.01,2013-04-13 11:55:00,
2013-04-13 06:58:00,51.0,46.0,29.91,ENE,59,0.0,0.0,83,0.00,,,0.00,VWS V14.01,2013-04-13 11:58:00,
2013-04-13 07:00:00,50.9,45.9,29.91,ENE,59,0.0,0.0,83,0.00,,,0.00,VWS V14.01,2013-04-13 12:00:00,
2013-04-13 07:03:00,50.8,45.8,29.91,ENE,59,0.0,0.0,83,0.00,,,0.00,VWS V14.01,2013-04-13 12:03:00,
2013-04-13 07:05:00,50.7,45.7,29.91,ENE,57,0.0,0.0,83,0.00,,,0.00,VWS V14.01,2013-04-13 12:05:00,
2013-04-13 07:08:00,50.8,46.2,29.92,NE,54,0.0,0.0,84,0.00,,,0.00,VWS V14.01,2013-04-13 12:08:00,
2013-04-13 07:10:00,51.0,46.7,29.92,NE,54,0.0,0.0,85,0.00,,,0.00,VWS V14.01,2013-04-13 12:10:00,
2013-04-13 07:13:00,51.5,47.2,29.92,NNE,28,0.0,0.0,85,0.00,,,0.00,VWS V14.01,2013-04-13 12:13:00,
2013-04-13 07:15:00,51.8,47.4,29.92,NNE,28,0.0,0.0,85,0.00,,,0.00,VWS V14.01,2013-04-13 12:15:00,
2013-04-13 07:18:00,52.2,47.8,29.92,NNE,28,0.0,0.0,85,0.00,,,0.00,VWS V14.01,2013-04-13 12:18:00,
2013-04-13 07:20:00,52.4,47.7,29.93,NNE,28,0.0,0.0,84,0.00,,,0.00,VWS V14.01,2013-04-13 12:20:00,
2013-04-13 07:23:00,52.2,47.2,29.92,NNE,28,0.0,0.0,83,0.00,,,0.00,VWS V14.01,2013-04-13 12:23:00,
2013-04-13 07:25:00,52.2,47.5,29.92,NNE,28,0.0,1.0,84,0.00,,,0.00,VWS V14.01,2013-04-13 12:25:00,
2013-04-13 07:28:00,52.2,47.5,29.92,NNE,28,0.0,0.0,84,0.00,,,0.00,VWS V14.01,2013-04-13 12:28:00,
2013-04-13 07:30:00,52.1,47.1,29.92,NNE,28,0.0,0.0,83,0.00,,,0.00,VWS V14.01,2013-04-13 12:30:00,
2013-04-13 07:33:00,51.7,46.7,29.92,NNE,28,0.0,0.0,83,0.00,,,0.00,VWS V14.01,2013-04-13 12:33:00,
2013-04-13 07:35:00,51.7,47.0,29.92,NNE,28,0.0,1.0,84,0.00,,,0.00,VWS V14.01,2013-04-13 12:35:00,
2013-04-13 07:38:00,51.8,47.4,29.92,NNE,28,0.0,0.0,85,0.00,,,0.00,VWS V14.01,2013-04-13 12:38:00,
2013-04-13 07:40:00,52.0,47.6,29.92,NNE,28,0.0,0.0,85,0.00,,,0.00,VWS V14.01,2013-04-13 12:40:00,
2013-04-13 07:43:00,52.3,47.9,29.93,NNE,28,0.0,0.0,85,0.00,,,0.00,VWS V14.01,2013-04-13 12:43:00,
2013-04-13 07:45:00,52.4,48.0,29.92,NNE,28,0.0,0.0,85,0.00,,,0.00,VWS V14.01,2013-04-13 12:45:00,
2013-04-13 07:48:00,52.6,48.2,29.93,NNE,28,0.0,0.0,85,0.00,,,0.00,VWS V14.01,2013-04-13 12:48:00,
2013-04-13 07:50:00,52.6,48.2,29.92,NNE,28,0.0,0.0,85,0.00,,,0.00,VWS V14.01,2013-04-13 12:50:00,
2013-04-13 07:53:00,52.9,48.5,29.93,NNE,28,0.0,0.0,85,0.00,,,0.00,VWS V14.01,2013-04-13 12:53:00,
2013-04-13 07:55:00,52.9,48.5,29.93,NNE,28,0.0,0.0,85,0.00,,,0.00,VWS V14.01,2013-04-13 12:55:00,
2013-04-13 07:58:00,53.2,48.8,29.93,NNE,28,0.0,0.0,85,0.00,,,0.00,VWS V14.01,2013-04-13 12:58:00,
2013-04-13 08:00:00,53.3,48.9,29.93,NNE,28,0.0,0.0,85,0.00,,,0.00,VWS V14.01,2013-04-13 13:00:00,
2013-04-13 08:03:00,53.6,49.2,29.93,NNE,28,0.0,0.0,85,0.00,,,0.00,VWS V14.01,2013-04-13 13:03:00,
2013-04-13 08:05:00,53.7,49.3,29.93,NNE,28,0.0,0.0,85,0.00,,,0.00,VWS V14.01,2013-04-13 13:05:00,
2013-04-13 08:08:00,53.8,49.4,29.92,NE,37,0.0,1.0,85,0.00,,,0.00,VWS V14.01,2013-04-13 13:08:00,
2013-04-13 08:10:00,53.9,49.5,29.92,ENE,61,2.0,2.0,85,0.00,,,0.00,VWS V14.01,2013-04-13 13:10:00,
2013-04-13 08:14:00,54.4,50.0,29.93,ENE,61,1.0,2.0,85,0.00,,,0.00,VWS V14.01,2013-04-13 13:14:00,
2013-04-13 08:15:00,54.5,50.1,29.93,ENE,61,0.0,2.0,85,0.00,,,0.00,VWS V14.01,2013-04-13 13:15:00,
2013-04-13 08:19:00,54.7,50.6,29.93,East,99,1.0,2.0,86,0.00,,,0.00,VWS V14.01,2013-04-13 13:19:00,
2013-04-13 08:20:00,54.9,50.8,29.93,East,98,1.0,2.0,86,0.00,,,0.00,VWS V14.01,2013-04-13 13:20:00,
2013-04-13 08:24:00,55.5,51.7,29.93,ESE,113,2.0,3.0,87,0.00,,,0.00,VWS V14.01,2013-04-13 13:24:00,
2013-04-13 08:25:00,55.7,51.9,29.93,ESE,113,2.0,3.0,87,0.00,,,0.00,VWS V14.01,2013-04-13 13:25:00,
2013-04-13 08:29:00,56.5,53.0,29.93,SE,126,4.0,5.0,88,0.00,,,0.00,VWS V14.01,2013-04-13 13:29:00,
2013-04-13 08:30:00,56.6,53.1,29.93,SE,132,6.0,6.0,88,0.00,,,0.00,VWS V14.01,2013-04-13 13:30:00,
2013-04-13 08:34:00,57.1,53.3,29.93,SSE,153,2.0,7.0,87,0.00,,,0.00,VWS V14.01,2013-04-13 13:34:00,
2013-04-13 08:35:00,57.2,53.4,29.93,ESE,120,2.0,7.0,87,0.00,,,0.00,VWS V14.01,2013-04-13 13:35:00,
2013-04-13 08:39:00,57.6,53.8,29.93,ESE,119,3.0,7.0,87,0.00,,,0.00,VWS V14.01,2013-04-13 13:39:00,
2013-04-13 08:40:00,57.6,53.8,29.93,SSE,154,4.0,7.0,87,0.00,,,0.00,VWS V14.01,2013-04-13 13:40:00,
2013-04-13 08:45:00,57.7,53.9,29.93,SSE,149,3.0,7.0,87,0.00,,,0.00,VWS V14.01,2013-04-13 13:45:00,
2013-04-13 08:50:00,57.9,54.1,29.93,SE,144,6.0,6.0,87,0.00,,,0.00,VWS V14.01,2013-04-13 13:50:00,
2013-04-13 08:55:00,58.0,54.2,29.93,SSE,164,5.0,6.0,87,0.00,,,0.00,VWS V14.01,2013-04-13 13:55:00,
2013-04-13 09:00:00,58.0,53.8,29.93,SE,144,3.0,3.0,86,0.00,,,0.00,VWS V14.01,2013-04-13 14:00:00,
2013-04-13 09:05:00,58.1,53.9,29.93,ESE,115,5.0,6.0,86,0.00,,,0.00,VWS V14.01,2013-04-13 14:05:00,
2013-04-13 09:10:00,58.2,54.0,29.92,ESE,112,4.0,5.0,86,0.00,,,0.00,VWS V14.01,2013-04-13 14:10:00,
2013-04-13 09:15:00,58.3,54.5,29.92,SSE,163,4.0,5.0,87,0.00,,,0.00,VWS V14.01,2013-04-13 14:15:00,
2013-04-13 09:20:00,58.3,54.5,29.92,SE,127,3.0,4.0,87,0.00,,,0.00,VWS V14.01,2013-04-13 14:20:00,
2013-04-13 09:25:00,58.4,54.5,29.93,ESE,104,3.0,4.0,87,0.00,,,0.00,VWS V14.01,2013-04-13 14:25:00,
2013-04-13 09:30:00,58.4,54.5,29.93,East,91,4.0,4.0,87,0.00,,,0.00,VWS V14.01,2013-04-13 14:30:00,
2013-04-13 09:35:00,58.5,54.7,29.93,SE,135,2.0,4.0,87,0.00,,,0.00,VWS V14.01,2013-04-13 14:35:00,
2013-04-13 09:40:00,58.6,54.8,29.93,ESE,104,3.0,4.0,87,0.00,,,0.00,VWS V14.01,2013-04-13 14:40:00,
2013-04-13 09:45:00,58.8,55.0,29.93,East,99,2.0,2.0,87,0.00,,,0.00,VWS V14.01,2013-04-13 14:45:00,
2013-04-13 09:50:00,59.2,55.3,29.93,SSE,149,5.0,7.0,87,0.00,,,0.00,VWS V14.01,2013-04-13 14:50:00,
2013-04-13 09:55:00,59.3,55.4,29.93,ESE,120,3.0,4.0,87,0.00,,,0.00,VWS V14.01,2013-04-13 14:55:00,
2013-04-13 10:00:00,59.5,55.6,29.93,ESE,106,3.0,5.0,87,0.00,,,0.00,VWS V14.01,2013-04-13 15:00:00,
2013-04-13 10:05:00,59.7,55.5,29.93,SE,137,3.0,3.0,86,0.00,,,0.00,VWS V14.01,2013-04-13 15:05:00,
2013-04-13 10:10:00,59.8,55.6,29.93,SSE,155,0.0,5.0,86,0.00,,,0.00,VWS V14.01,2013-04-13 15:10:00,
2013-04-13 10:11:00,59.8,55.6,29.93,SE,133,1.0,2.0,86,0.00,,,0.00,VWS V14.01,2013-04-13 15:11:00,
2013-04-13 10:15:00,60.1,55.9,29.93,East,99,1.0,2.0,86,0.00,,,0.00,VWS V14.01,2013-04-13 15:15:00,
2013-04-13 10:16:00,60.2,56.0,29.93,ESE,123,1.0,3.0,86,0.00,,,0.00,VWS V14.01,2013-04-13 15:16:00,
2013-04-13 10:20:00,60.4,55.9,29.93,ENE,77,1.0,3.0,85,0.00,,,0.00,VWS V14.01,2013-04-13 15:20:00,
2013-04-13 10:22:00,60.6,56.1,29.93,SE,127,6.0,6.0,85,0.00,,,0.00,VWS V14.01,2013-04-13 15:22:00,
2013-04-13 10:25:00,60.6,56.1,29.93,ESE,109,4.0,6.0,85,0.00,,,0.00,VWS V14.01,2013-04-13 15:25:00,
2013-04-13 10:27:00,60.7,55.8,29.93,ENE,70,2.0,4.0,84,0.00,,,0.00,VWS V14.01,2013-04-13 15:27:00,
2013-04-13 10:30:00,61.0,56.1,29.93,East,98,1.0,4.0,84,0.00,,,0.00,VWS V14.01,2013-04-13 15:30:00,
2013-04-13 10:32:00,61.2,56.3,29.93,East,98,1.0,1.0,84,0.00,,,0.00,VWS V14.01,2013-04-13 15:32:00,
2013-04-13 10:35:00,61.5,56.6,29.93,SE,130,4.0,6.0,84,0.00,,,0.00,VWS V14.01,2013-04-13 15:35:00,
2013-04-13 10:37:00,61.7,56.5,29.93,SE,133,3.0,4.0,83,0.00,,,0.00,VWS V14.01,2013-04-13 15:37:00,
2013-04-13 10:40:00,62.2,57.0,29.93,ESE,113,7.0,7.0,83,0.00,,,0.00,VWS V14.01,2013-04-13 15:40:00,
2013-04-13 10:42:00,62.2,56.6,29.93,ESE,118,5.0,9.0,82,0.00,,,0.00,VWS V14.01,2013-04-13 15:42:00,
2013-04-13 10:45:00,62.2,56.3,29.93,SE,132,8.0,9.0,81,0.00,,,0.00,VWS V14.01,2013-04-13 15:45:00,
2013-04-13 10:47:00,62.1,56.2,29.93,ESE,104,5.0,12.0,81,0.00,,,0.00,VWS V14.01,2013-04-13 15:47:00,
2013-04-13 10:50:00,62.3,56.4,29.93,SSE,165,3.0,12.0,81,0.00,,,0.00,VWS V14.01,2013-04-13 15:50:00,
2013-04-13 10:52:00,62.3,56.4,29.92,SSE,149,5.0,6.0,81,0.00,,,0.00,VWS V14.01,2013-04-13 15:52:00,
2013-04-13 10:55:00,62.6,57.0,29.92,SE,130,5.0,6.0,82,0.00,,,0.00,VWS V14.01,2013-04-13 15:55:00,
2013-04-13 10:57:00,62.9,57.0,29.92,SSE,149,3.0,7.0,81,0.00,,,0.00,VWS V14.01,2013-04-13 15:57:00,
2013-04-13 11:00:00,63.1,56.5,29.92,SSE,162,2.0,9.0,79,0.00,,,0.00,VWS V14.01,2013-04-13 16:00:00,
2013-04-13 11:02:00,63.3,56.7,29.92,SE,126,4.0,8.0,79,0.00,,,0.00,VWS V14.01,2013-04-13 16:02:00,
2013-04-13 11:05:00,63.9,58.0,29.92,East,85,5.0,9.0,81,0.00,,,0.00,VWS V14.01,2013-04-13 16:05:00,
2013-04-13 11:07:00,64.0,57.0,29.91,ESE,116,4.0,10.0,78,0.00,,,0.00,VWS V14.01,2013-04-13 16:07:00,
2013-04-13 11:10:00,63.8,56.8,29.91,East,84,6.0,10.0,78,0.00,,,0.00,VWS V14.01,2013-04-13 16:10:00,
2013-04-13 11:12:00,63.8,56.8,29.91,ESE,109,11.0,11.0,78,0.00,,,0.00,VWS V14.01,2013-04-13 16:12:00,
2013-04-13 11:15:00,63.6,56.3,29.91,SE,133,5.0,11.0,77,0.00,,,0.00,VWS V14.01,2013-04-13 16:15:00,
2013-04-13 11:17:00,63.7,56.4,29.91,SE,132,5.0,9.0,77,0.00,,,0.00,VWS V14.01,2013-04-13 16:17:00,
2013-04-13 11:20:00,63.8,56.5,29.91,ESE,123,7.0,9.0,77,0.00,,,0.00,VWS V14.01,2013-04-13 16:20:00,
2013-04-13 11:22:00,63.9,56.6,29.90,SE,127,7.0,11.0,77,0.00,,,0.00,VWS V14.01,2013-04-13 16:22:00,
2013-04-13 11:25:00,64.0,56.3,29.90,SSE,152,7.0,11.0,76,0.00,,,0.00,VWS V14.01,2013-04-13 16:25:00,
2013-04-13 11:28:00,64.1,56.0,29.90,SE,132,4.0,8.0,75,0.00,,,0.00,VWS V14.01,2013-04-13 16:28:00,
2013-04-13 11:30:00,64.3,56.6,29.90,ESE,120,6.0,8.0,76,0.00,,,0.00,VWS V14.01,2013-04-13 16:30:00,
2013-04-13 11:33:00,64.2,56.5,29.90,ESE,104,6.0,9.0,76,0.00,,,0.00,VWS V14.01,2013-04-13 16:33:00,
2013-04-13 11:35:00,64.2,56.5,29.90,East,98,2.0,9.0,76,0.00,,,0.00,VWS V14.01,2013-04-13 16:35:00,
2013-04-13 11:38:00,64.3,56.2,29.90,East,91,4.0,6.0,75,0.00,,,0.00,VWS V14.01,2013-04-13 16:38:00,
2013-04-13 11:40:00,64.5,56.4,29.90,ESE,105,6.0,8.0,75,0.00,,,0.00,VWS V14.01,2013-04-13 16:40:00,
2013-04-13 11:43:00,64.6,56.1,29.90,SE,130,5.0,6.0,74,0.00,,,0.00,VWS V14.01,2013-04-13 16:43:00,
2013-04-13 11:45:00,64.8,56.3,29.90,SE,128,2.0,6.0,74,0.00,,,0.00,VWS V14.01,2013-04-13 16:45:00,
2013-04-13 11:48:00,65.2,57.1,29.90,SSE,149,3.0,4.0,75,0.00,,,0.00,VWS V14.01,2013-04-13 16:48:00,
2013-04-13 11:50:00,65.7,56.8,29.90,SE,142,4.0,10.0,73,0.00,,,0.00,VWS V14.01,2013-04-13 16:50:00,
2013-04-13 11:53:00,66.1,56.8,29.90,ESE,113,5.0,10.0,72,0.00,,,0.00,VWS V14.01,2013-04-13 16:53:00,
2013-04-13 11:55:00,66.3,56.6,29.90,SSE,147,8.0,10.0,71,0.00,,,0.00,VWS V14.01,2013-04-13 16:55:00,
2013-04-13 11:58:00,66.8,57.5,29.90,SSE,156,4.0,10.0,72,0.00,,,0.00,VWS V14.01,2013-04-13 16:58:00,
2013-04-13 12:00:00,66.9,56.4,29.90,ESE,119,5.0,10.0,69,0.00,,,0.00,VWS V14.01,2013-04-13 17:00:00,
2013-04-13 12:03:00,67.3,57.6,29.90,ESE,108,4.0,10.0,71,0.00,,,0.00,VWS V14.01,2013-04-13 17:03:00,
2013-04-13 12:05:00,67.5,57.4,29.89,SE,132,5.0,10.0,70,0.00,,,0.00,VWS V14.01,2013-04-13 17:05:00,
2013-04-13 12:08:00,68.0,56.2,29.89,SE,133,6.0,12.0,66,0.00,,,0.00,VWS V14.01,2013-04-13 17:08:00,
2013-04-13 12:10:00,68.1,55.5,29.89,SE,139,5.0,12.0,64,0.00,,,0.00,VWS V14.01,2013-04-13 17:10:00,
2013-04-13 12:13:00,69.2,57.4,29.89,ESE,105,8.0,11.0,66,0.00,,,0.00,VWS V14.01,2013-04-13 17:13:00,
2013-04-13 12:15:00,69.2,55.6,29.89,SSE,167,9.0,11.0,62,0.00,,,0.00,VWS V14.01,2013-04-13 17:15:00,
2013-04-13 12:18:00,69.6,57.3,29.89,SSE,167,9.0,11.0,65,0.00,,,0.00,VWS V14.01,2013-04-13 17:18:00,
2013-04-13 12:20:00,69.5,56.8,29.89,SE,133,2.0,11.0,64,0.00,,,0.00,VWS V14.01,2013-04-13 17:20:00,
2013-04-13 12:23:00,69.6,55.1,29.89,ESE,115,8.0,12.0,60,0.00,,,0.00,VWS V14.01,2013-04-13 17:23:00,
2013-04-13 12:25:00,69.6,55.6,29.89,SE,139,11.0,13.0,61,0.00,,,0.00,VWS V14.01,2013-04-13 17:25:00,
2013-04-13 12:28:00,69.1,54.2,29.88,SSE,151,7.0,11.0,59,0.00,,,0.00,VWS V14.01,2013-04-13 17:28:00,
2013-04-13 12:30:00,68.9,54.9,29.88,SE,144,9.0,11.0,61,0.00,,,0.00,VWS V14.01,2013-04-13 17:30:00,
2013-04-13 12:34:00,68.6,54.6,29.88,SE,132,7.0,11.0,61,0.00,,,0.00,VWS V14.01,2013-04-13 17:34:00,
2013-04-13 12:35:00,68.6,55.1,29.88,ESE,118,8.0,11.0,62,0.00,,,0.00,VWS V14.01,2013-04-13 17:35:00,
2013-04-13 12:39:00,68.4,54.9,29.88,ESE,111,5.0,9.0,62,0.00,,,0.00,VWS V14.01,2013-04-13 17:39:00,
2013-04-13 12:40:00,68.4,54.4,29.88,SE,125,4.0,9.0,61,0.00,,,0.00,VWS V14.01,2013-04-13 17:40:00,
2013-04-13 12:44:00,68.6,55.1,29.87,SSE,156,7.0,11.0,62,0.00,,,0.00,VWS V14.01,2013-04-13 17:44:00,
2013-04-13 12:45:00,68.6,54.6,29.87,SE,143,6.0,11.0,61,0.00,,,0.00,VWS V14.01,2013-04-13 17:45:00,
2013-04-13 12:49:00,69.0,55.9,29.87,SE,127,8.0,9.0,63,0.00,,,0.00,VWS V14.01,2013-04-13 17:49:00,
2013-04-13 12:50:00,69.3,57.0,29.87,ESE,111,3.0,9.0,65,0.00,,,0.00,VWS V14.01,2013-04-13 17:50:00,
2013-04-13 12:54:00,70.1,56.9,29.87,SSE,168,5.0,11.0,63,0.00,,,0.00,VWS V14.01,2013-04-13 17:54:00,
2013-04-13 12:55:00,70.4,56.8,29.87,SSE,162,3.0,11.0,62,0.00,,,0.00,VWS V14.01,2013-04-13 17:55:00,
2013-04-13 12:59:00,70.6,55.6,29.86,ESE,111,12.0,13.0,59,0.00,,,0.00,VWS V14.01,2013-04-13 17:59:00,
2013-04-13 13:00:00,70.6,55.6,29.86,SE,137,9.0,13.0,59,0.00,,,0.00,VWS V14.01,2013-04-13 18:00:00,
2013-04-13 13:04:00,71.1,56.5,29.86,SSE,166,5.0,11.0,60,0.00,,,0.00,VWS V14.01,2013-04-13 18:04:00,
2013-04-13 13:05:00,71.2,55.7,29.86,SE,143,6.0,11.0,58,0.00,,,0.00,VWS V14.01,2013-04-13 18:05:00,
2013-04-13 13:09:00,71.8,56.2,29.86,SE,129,4.0,13.0,58,0.00,,,0.00,VWS V14.01,2013-04-13 18:09:00,
2013-04-13 13:10:00,71.9,55.4,29.86,ESE,105,8.0,13.0,56,0.00,,,0.00,VWS V14.01,2013-04-13 18:10:00,
2013-04-13 13:14:00,72.1,55.1,29.85,East,94,7.0,11.0,55,0.00,,,0.00,VWS V14.01,2013-04-13 18:14:00,
2013-04-13 13:15:00,72.0,54.5,29.86,East,87,6.0,13.0,54,0.00,,,0.00,VWS V14.01,2013-04-13 18:15:00,
2013-04-13 13:19:00,71.9,54.4,29.86,ESE,106,7.0,13.0,54,0.00,,,0.00,VWS V14.01,2013-04-13 18:19:00,
2013-04-13 13:20:00,71.8,54.3,29.85,ESE,123,6.0,13.0,54,0.00,,,0.00,VWS V14.01,2013-04-13 18:20:00,
2013-04-13 13:24:00,72.0,54.0,29.85,ESE,120,6.0,10.0,53,0.00,,,0.00,VWS V14.01,2013-04-13 18:24:00,
2013-04-13 13:25:00,72.0,54.0,29.85,ESE,105,6.0,10.0,53,0.00,,,0.00,VWS V14.01,2013-04-13 18:25:00,
2013-04-13 13:27:00,72.0,54.0,29.85,SE,142,7.0,10.0,53,0.00,,,0.00,VWS V14.01,2013-04-13 18:27:00,
2013-04-13 13:30:00,72.6,54.0,29.85,SSE,147,6.0,10.0,52,0.00,,,0.00,VWS V14.01,2013-04-13 18:30:00,
2013-04-13 13:32:00,72.7,52.5,29.85,SSE,158,6.0,11.0,49,0.00,,,0.00,VWS V14.01,2013-04-13 18:32:00,
2013-04-13 13:35:00,72.9,52.6,29.85,East,101,10.0,12.0,49,0.00,,,0.00,VWS V14.01,2013-04-13 18:35:00,
2013-04-13 13:37:00,72.8,52.5,29.85,ESE,113,4.0,10.0,49,0.00,,,0.00,VWS V14.01,2013-04-13 18:37:00,
2013-04-13 13:40:00,73.1,55.5,29.84,SE,136,5.0,10.0,54,0.00,,,0.00,VWS V14.01,2013-04-13 18:40:00,
2013-04-13 13:42:00,73.2,54.0,29.84,ESE,109,5.0,11.0,51,0.00,,,0.00,VWS V14.01,2013-04-13 18:42:00,
2013-04-13 13:45:00,73.3,55.2,29.84,ESE,109,5.0,11.0,53,0.00,,,0.00,VWS V14.01,2013-04-13 18:45:00,
2013-04-13 13:47:00,73.7,54.5,29.84,SE,143,8.0,9.0,51,0.00,,,0.00,VWS V14.01,2013-04-13 18:47:00,
2013-04-13 13:50:00,73.9,54.1,29.84,ESE,123,12.0,15.0,50,0.00,,,0.00,VWS V14.01,2013-04-13 18:50:00,
2013-04-13 13:52:00,73.9,55.2,29.84,ESE,111,7.0,14.0,52,0.00,,,0.00,VWS V14.01,2013-04-13 18:52:00,
2013-04-13 13:55:00,73.6,53.8,29.84,ESE,105,9.0,14.0,50,0.00,,,0.00,VWS V14.01,2013-04-13 18:55:00,
2013-04-13 13:57:00,73.5,54.3,29.84,SE,132,9.0,9.0,51,0.00,,,0.00,VWS V14.01,2013-04-13 18:57:00,
2013-04-13 14:00:00,73.6,54.4,29.83,ESE,113,10.0,15.0,51,0.00,,,0.00,VWS V14.01,2013-04-13 19:00:00,
2013-04-13 14:02:00,73.5,54.3,29.83,ESE,103,6.0,12.0,51,0.00,,,0.00,VWS V14.01,2013-04-13 19:02:00,
2013-04-13 14:05:00,73.6,53.8,29.83,SE,126,6.0,12.0,50,0.00,,,0.00,VWS V14.01,2013-04-13 19:05:00,
2013-04-13 14:07:00,73.7,55.5,29.83,SE,132,10.0,10.0,53,0.00,,,0.00,VWS V14.01,2013-04-13 19:07:00,
2013-04-13 14:10:00,73.7,53.9,29.83,ESE,102,13.0,14.0,50,0.00,,,0.00,VWS V14.01,2013-04-13 19:10:00,
2013-04-13 14:12:00,73.6,53.8,29.83,ESE,109,8.0,14.0,50,0.00,,,0.00,VWS V14.01,2013-04-13 19:12:00,
2013-04-13 14:15:00,73.2,54.5,29.83,ESE,111,9.0,14.0,52,0.00,,,0.00,VWS V14.01,2013-04-13 19:15:00,
2013-04-13 14:17:00,73.1,52.3,29.83,SE,132,9.0,13.0,48,0.00,,,0.00,VWS V14.01,2013-04-13 19:17:00,
2013-04-13 14:20:00,73.2,53.5,29.83,SE,134,7.0,13.0,50,0.00,,,0.00,VWS V14.01,2013-04-13 19:20:00,
2013-04-13 14:22:00,73.3,52.5,29.83,ESE,113,5.0,10.0,48,0.00,,,0.00,VWS V14.01,2013-04-13 19:22:00,
2013-04-13 14:25:00,73.5,52.6,29.82,ESE,123,10.0,12.0,48,0.00,,,0.00,VWS V14.01,2013-04-13 19:25:00,
2013-04-13 14:27:00,73.4,52.5,29.82,ESE,112,6.0,10.0,48,0.00,,,0.00,VWS V14.01,2013-04-13 19:27:00,
2013-04-13 14:30:00,73.6,53.8,29.82,ESE,112,12.0,12.0,50,0.00,,,0.00,VWS V14.01,2013-04-13 19:30:00,
2013-04-13 14:32:00,73.6,53.3,29.82,SE,139,11.0,15.0,49,0.00,,,0.00,VWS V14.01,2013-04-13 19:32:00,
2013-04-13 14:35:00,74.0,55.3,29.82,ESE,109,7.0,15.0,52,0.00,,,0.00,VWS V14.01,2013-04-13 19:35:00,
2013-04-13 14:37:00,74.4,55.1,29.82,ESE,108,8.0,11.0,51,0.00,,,0.00,VWS V14.01,2013-04-13 19:37:00,
2013-04-13 14:40:00,74.6,54.2,29.82,ESE,112,4.0,11.0,49,0.00,,,0.00,VWS V14.01,2013-04-13 19:40:00,
2013-04-13 14:42:00,74.7,55.4,29.82,ESE,119,11.0,11.0,51,0.00,,,0.00,VWS V14.01,2013-04-13 19:42:00,
2013-04-13 14:45:00,74.6,53.1,29.82,ESE,105,6.0,15.0,47,0.00,,,0.00,VWS V14.01,2013-04-13 19:45:00,
2013-04-13 14:47:00,74.4,52.9,29.81,ESE,123,7.0,10.0,47,0.00,,,0.00,VWS V14.01,2013-04-13 19:47:00,
2013-04-13 14:50:00,74.2,53.3,29.81,SSE,158,7.0,14.0,48,0.00,,,0.00,VWS V14.01,2013-04-13 19:50:00,
2013-04-13 14:52:00,74.2,54.9,29.81,ESE,109,6.0,11.0,51,0.00,,,0.00,VWS V14.01,2013-04-13 19:52:00,
2013-04-13 14:55:00,74.2,54.9,29.81,ESE,113,8.0,13.0,51,0.00,,,0.00,VWS V14.01,2013-04-13 19:55:00,
2013-04-13 14:57:00,74.0,53.1,29.81,ESE,115,12.0,14.0,48,0.00,,,0.00,VWS V14.01,2013-04-13 19:57:00,
2013-04-13 15:00:00,73.6,53.3,29.81,ESE,114,9.0,14.0,49,0.00,,,0.00,VWS V14.01,2013-04-13 20:00:00,
2013-04-13 15:02:00,73.7,53.4,29.81,ESE,109,12.0,12.0,49,0.00,,,0.00,VWS V14.01,2013-04-13 20:02:00,
2013-04-13 15:05:00,74.0,53.1,29.81,SE,129,10.0,15.0,48,0.00,,,0.00,VWS V14.01,2013-04-13 20:05:00,
2013-04-13 15:07:00,74.1,53.2,29.80,SE,132,13.0,16.0,48,0.00,,,0.00,VWS V14.01,2013-04-13 20:07:00,
2013-04-13 15:10:00,74.3,55.0,29.80,East,97,11.0,16.0,51,0.00,,,0.00,VWS V14.01,2013-04-13 20:10:00,
2013-04-13 15:12:00,74.6,54.2,29.80,SE,140,12.0,14.0,49,0.00,,,0.00,VWS V14.01,2013-04-13 20:12:00,
2013-04-13 15:15:00,74.6,53.6,29.80,ESE,113,13.0,16.0,48,0.00,,,0.00,VWS V14.01,2013-04-13 20:15:00,
2013-04-13 15:17:00,74.5,54.1,29.80,ESE,102,10.0,16.0,49,0.00,,,0.00,VWS V14.01,2013-04-13 20:17:00,
2013-04-13 15:20:00,74.4,52.9,29.79,ESE,120,7.0,16.0,47,0.00,,,0.00,VWS V14.01,2013-04-13 20:20:00,
2013-04-13 15:22:00,74.5,54.1,29.79,ESE,117,10.0,16.0,49,0.00,,,0.00,VWS V14.01,2013-04-13 20:22:00,
2013-04-13 15:25:00,74.8,54.9,29.79,SE,136,9.0,16.0,50,0.00,,,0.00,VWS V14.01,2013-04-13 20:25:00,
2013-04-13 15:27:00,74.8,54.4,29.79,ESE,109,14.0,17.0,49,0.00,,,0.00,VWS V14.01,2013-04-13 20:27:00,
2013-04-13 15:30:00,74.6,53.6,29.78,SE,136,12.0,17.0,48,0.00,,,0.00,VWS V14.01,2013-04-13 20:30:00,
2013-04-13 15:32:00,74.8,54.9,29.78,ESE,113,13.0,15.0,50,0.00,,,0.00,VWS V14.01,2013-04-13 20:32:00,
2013-04-13 15:35:00,74.7,53.7,29.78,SE,132,16.0,17.0,48,0.00,,,0.00,VWS V14.01,2013-04-13 20:35:00,
2013-04-13 15:37:00,74.6,53.6,29.79,SSE,149,10.0,15.0,48,0.00,,,0.00,VWS V14.01,2013-04-13 20:37:00,
2013-04-13 15:40:00,74.7,54.3,29.78,SE,142,16.0,16.0,49,0.00,,,0.00,VWS V14.01,2013-04-13 20:40:00,
2013-04-13 15:42:00,74.4,52.9,29.78,SSE,150,12.0,17.0,47,0.00,,,0.00,VWS V14.01,2013-04-13 20:42:00,
2013-04-13 15:45:00,74.4,54.0,29.79,ESE,108,9.0,17.0,49,0.00,,,0.00,VWS V14.01,2013-04-13 20:45:00,
2013-04-13 15:47:00,74.4,53.5,29.78,ESE,123,10.0,15.0,48,0.00,,,0.00,VWS V14.01,2013-04-13 20:47:00,
2013-04-13 15:50:00,74.1,53.2,29.78,SE,135,13.0,15.0,48,0.00,,,0.00,VWS V14.01,2013-04-13 20:50:00,
2013-04-13 15:52:00,73.7,53.4,29.78,SE,129,12.0,16.0,49,0.00,,,0.00,VWS V14.01,2013-04-13 20:52:00,
2013-04-13 15:55:00,73.6,53.3,29.78,ESE,116,9.0,16.0,49,0.00,,,0.00,VWS V14.01,2013-04-13 20:55:00,
2013-04-13 15:57:00,73.4,52.5,29.78,ESE,109,11.0,14.0,48,0.00,,,0.00,VWS V14.01,2013-04-13 20:57:00,
2013-04-13 16:00:00,73.4,52.5,29.78,ESE,118,12.0,14.0,48,0.00,,,0.00,VWS V14.01,2013-04-13 21:00:00,
2013-04-13 16:02:00,73.3,51.9,29.77,ESE,112,8.0,13.0,47,0.00,,,0.00,VWS V14.01,2013-04-13 21:02:00,
2013-04-13 16:05:00,73.6,52.7,29.77,ESE,117,10.0,15.0,48,0.00,,,0.00,VWS V14.01,2013-04-13 21:05:00,
2013-04-13 16:07:00,73.7,53.4,29.77,SSE,149,10.0,15.0,49,0.00,,,0.00,VWS V14.01,2013-04-13 21:07:00,
2013-04-13 16:10:00,73.5,52.6,29.77,SE,135,14.0,15.0,48,0.00,,,0.00,VWS V14.01,2013-04-13 21:10:00,
2013-04-13 16:12:00,73.3,53.6,29.77,East,92,7.0,14.0,50,0.00,,,0.00,VWS V14.01,2013-04-13 21:12:00,
2013-04-13 16:15:00,73.2,52.4,29.77,ESE,115,10.0,14.0,48,0.00,,,0.00,VWS V14.01,2013-04-13 21:15:00,
2013-04-13 16:17:00,73.1,52.3,29.77,SE,136,10.0,11.0,48,0.00,,,0.00,VWS V14.01,2013-04-13 21:17:00,
2013-04-13 16:20:00,73.1,52.8,29.77,ESE,115,10.0,13.0,49,0.00,,,0.00,VWS V14.01,2013-04-13 21:20:00,
2013-04-13 16:22:00,73.1,53.4,29.77,ESE,118,9.0,11.0,50,0.00,,,0.00,VWS V14.01,2013-04-13 21:22:00,
2013-04-13 16:25:00,73.3,52.5,29.77,ESE,115,9.0,15.0,48,0.00,,,0.00,VWS V14.01,2013-04-13 21:25:00,
2013-04-13 16:27:00,73.3,53.0,29.77,SE,144,8.0,10.0,49,0.00,,,0.00,VWS V14.01,2013-04-13 21:27:00,
2013-04-13 16:30:00,73.6,53.3,29.77,SE,133,10.0,14.0,49,0.00,,,0.00,VWS V14.01,2013-04-13 21:30:00,
2013-04-13 16:32:00,73.8,53.5,29.77,SE,140,11.0,13.0,49,0.00,,,0.00,VWS V14.01,2013-04-13 21:32:00,
2013-04-13 16:35:00,74.0,52.5,29.77,SE,125,10.0,14.0,47,0.00,,,0.00,VWS V14.01,2013-04-13 21:35:00,
2013-04-13 16:37:00,74.0,51.9,29.77,SE,125,8.0,14.0,46,0.00,,,0.00,VWS V14.01,2013-04-13 21:37:00,
2013-04-13 16:40:00,74.1,53.7,29.77,ESE,112,11.0,14.0,49,0.00,,,0.00,VWS V14.01,2013-04-13 21:40:00,
2013-04-13 16:42:00,74.3,54.5,29.77,SE,135,8.0,13.0,50,0.00,,,0.00,VWS V14.01,2013-04-13 21:42:00,
2013-04-13 16:45:00,74.5,53.5,29.77,ESE,117,12.0,17.0,48,0.00,,,0.00,VWS V14.01,2013-04-13 21:45:00,
2013-04-13 16:47:00,74.1,51.4,29.76,SE,142,9.0,16.0,45,0.00,,,0.00,VWS V14.01,2013-04-13 21:47:00,
2013-04-13 16:50:00,74.1,50.2,29.76,ESE,118,9.0,16.0,43,0.00,,,0.00,VWS V14.01,2013-04-13 21:50:00,
2013-04-13 16:52:00,74.2,52.1,29.76,East,99,11.0,11.0,46,0.00,,,0.00,VWS V14.01,2013-04-13 21:52:00,
2013-04-13 16:55:00,74.3,50.4,29.76,ESE,111,6.0,14.0,43,0.00,,,0.00,VWS V14.01,2013-04-13 21:55:00,
2013-04-13 16:57:00,73.9,50.0,29.76,ESE,118,9.0,13.0,43,0.00,,,0.00,VWS V14.01,2013-04-13 21:57:00,
2013-04-13 17:00:00,73.3,50.7,29.76,SE,146,8.0,13.0,45,0.00,,,0.00,VWS V14.01,2013-04-13 22:00:00,
2013-04-13 17:02:00,73.0,50.4,29.76,ESE,116,10.0,11.0,45,0.00,,,0.00,VWS V14.01,2013-04-13 22:02:00,
2013-04-13 17:05:00,72.7,48.3,29.76,ESE,115,7.0,11.0,42,0.00,,,0.00,VWS V14.01,2013-04-13 22:05:00,
2013-04-13 17:07:00,72.6,48.2,29.76,SE,139,7.0,12.0,42,0.00,,,0.00,VWS V14.01,2013-04-13 22:07:00,
2013-04-13 17:10:00,72.4,48.7,29.76,ESE,109,9.0,14.0,43,0.00,,,0.00,VWS V14.01,2013-04-13 22:10:00,
2013-04-13 17:12:00,72.3,48.6,29.76,SE,137,8.0,13.0,43,0.00,,,0.00,VWS V14.01,2013-04-13 22:12:00,
2013-04-13 17:15:00,72.2,49.1,29.76,ESE,122,9.0,13.0,44,0.00,,,0.00,VWS V14.01,2013-04-13 22:15:00,
2013-04-13 17:17:00,72.1,50.2,29.76,ESE,112,7.0,12.0,46,0.00,,,0.00,VWS V14.01,2013-04-13 22:17:00,
2013-04-13 17:20:00,72.0,50.1,29.76,ESE,115,9.0,12.0,46,0.00,,,0.00,VWS V14.01,2013-04-13 22:20:00,
2013-04-13 17:22:00,71.9,50.0,29.76,ESE,106,11.0,12.0,46,0.00,,,0.00,VWS V14.01,2013-04-13 22:22:00,
2013-04-13 17:25:00,71.7,49.8,29.76,ESE,109,7.0,14.0,46,0.00,,,0.00,VWS V14.01,2013-04-13 22:25:00,
2013-04-13 17:27:00,71.6,49.8,29.76,ESE,116,11.0,11.0,46,0.00,,,0.00,VWS V14.01,2013-04-13 22:27:00,
2013-04-13 17:30:00,71.5,49.1,29.76,ESE,116,7.0,11.0,45,0.00,,,0.00,VWS V14.01,2013-04-13 22:30:00,
2013-04-13 17:32:00,71.4,50.1,29.76,ESE,111,6.0,9.0,47,0.00,,,0.00,VWS V14.01,2013-04-13 22:32:00,
2013-04-13 17:35:00,71.2,50.0,29.76,SE,130,5.0,10.0,47,0.00,,,0.00,VWS V14.01,2013-04-13 22:35:00,
2013-04-13 17:37:00,71.0,50.3,29.76,ESE,116,6.0,7.0,48,0.00,,,0.00,VWS V14.01,2013-04-13 22:37:00,
2013-04-13 17:40:00,70.7,50.6,29.76,ESE,116,4.0,7.0,49,0.00,,,0.00,VWS V14.01,2013-04-13 22:40:00,
2013-04-13 17:42:00,70.4,50.9,29.76,East,98,4.0,6.0,50,0.00,,,0.00,VWS V14.01,2013-04-13 22:42:00,
2013-04-13 17:45:00,70.2,51.8,29.76,ENE,70,3.0,6.0,52,0.00,,,0.00,VWS V14.01,2013-04-13 22:45:00,
2013-04-13 17:47:00,70.0,50.5,29.76,East,94,3.0,6.0,50,0.00,,,0.00,VWS V14.01,2013-04-13 22:47:00,
2013-04-13 17:50:00,69.9,52.0,29.76,East,90,2.0,6.0,53,0.00,,,0.00,VWS V14.01,2013-04-13 22:50:00,
2013-04-13 17:52:00,69.8,52.4,29.76,ENE,77,3.0,4.0,54,0.00,,,0.00,VWS V14.01,2013-04-13 22:52:00,
2013-04-13 17:55:00,69.6,52.2,29.75,East,88,2.0,4.0,54,0.00,,,0.00,VWS V14.01,2013-04-13 22:55:00,
2013-04-13 17:57:00,69.6,52.7,29.75,ENE,78,5.0,5.0,55,0.00,,,0.00,VWS V14.01,2013-04-13 22:57:00,
2013-04-13 18:00:00,69.5,53.1,29.75,East,99,4.0,5.0,56,0.00,,,0.00,VWS V14.01,2013-04-13 23:00:00,
2013-04-13 18:02:00,69.5,54.1,29.75,East,84,3.0,5.0,58,0.00,,,0.00,VWS V14.01,2013-04-13 23:02:00,
2013-04-13 18:05:00,69.4,53.5,29.75,ENE,68,2.0,5.0,57,0.00,,,0.00,VWS V14.01,2013-04-13 23:05:00,
2013-04-13 18:07:00,69.3,53.4,29.76,ENE,76,2.0,5.0,57,0.00,,,0.00,VWS V14.01,2013-04-13 23:07:00,
2013-04-13 18:10:00,69.3,53.4,29.76,East,90,4.0,5.0,57,0.00,,,0.00,VWS V14.01,2013-04-13 23:10:00,
2013-04-13 18:12:00,69.2,53.8,29.76,NE,56,3.0,4.0,58,0.00,,,0.00,VWS V14.01,2013-04-13 23:12:00,
2013-04-13 18:15:00,69.1,54.2,29.75,ENE,70,3.0,4.0,59,0.00,,,0.00,VWS V14.01,2013-04-13 23:15:00,
2013-04-13 18:17:00,69.0,54.5,29.75,ENE,59,1.0,3.0,60,0.00,,,0.00,VWS V14.01,2013-04-13 23:17:00,
2013-04-13 18:20:00,68.9,54.0,29.76,ENE,71,2.0,3.0,59,0.00,,,0.00,VWS V14.01,2013-04-13 23:20:00,
2013-04-13 18:22:00,68.9,54.5,29.75,ENE,68,1.0,3.0,60,0.00,,,0.00,VWS V14.01,2013-04-13 23:22:00,
2013-04-13 18:25:00,68.9,54.9,29.75,ENE,61,2.0,3.0,61,0.00,,,0.00,VWS V14.01,2013-04-13 23:25:00,
2013-04-13 18:27:00,68.8,55.3,29.75,ENE,77,3.0,4.0,62,0.00,,,0.00,VWS V14.01,2013-04-13 23:27:00,
2013-04-13 18:30:00,68.7,55.2,29.75,ENE,78,2.0,4.0,62,0.00,,,0.00,VWS V14.01,2013-04-13 23:30:00,
2013-04-13 18:32:00,68.6,56.0,29.75,East,90,2.0,3.0,64,0.00,,,0.00,VWS V14.01,2013-04-13 23:32:00,
2013-04-13 18:35:00,68.4,55.8,29.75,East,85,3.0,3.0,64,0.00,,,0.00,VWS V14.01,2013-04-13 23:35:00,
2013-04-13 18:37:00,68.2,56.0,29.75,East,87,3.0,4.0,65,0.00,,,0.00,VWS V14.01,2013-04-13 23:37:00,
2013-04-13 18:40:00,68.1,56.3,29.75,East,84,3.0,4.0,66,0.00,,,0.00,VWS V14.01,2013-04-13 23:40:00,
2013-04-13 18:42:00,68.0,56.2,29.75,East,88,2.0,3.0,66,0.00,,,0.00,VWS V14.01,2013-04-13 23:42:00,
2013-04-13 18:45:00,67.9,56.1,29.75,East,85,1.0,4.0,66,0.00,,,0.00,VWS V14.01,2013-04-13 23:45:00,
2013-04-13 18:47:00,67.9,56.1,29.75,East,80,2.0,3.0,66,0.00,,,0.00,VWS V14.01,2013-04-13 23:47:00,
2013-04-13 18:50:00,67.8,56.5,29.75,ENE,73,1.0,3.0,67,0.00,,,0.00,VWS V14.01,2013-04-13 23:50:00,
2013-04-13 18:52:00,67.8,56.5,29.76,NE,53,2.0,3.0,67,0.00,,,0.00,VWS V14.01,2013-04-13 23:52:00,
2013-04-13 18:55:00,67.8,56.0,29.76,ENE,63,2.0,3.0,66,0.00,,,0.00,VWS V14.01,2013-04-13 23:55:00,
2013-04-13 18:57:00,67.9,56.1,29.75,ENE,64,1.0,3.0,66,0.00,,,0.00,VWS V14.01,2013-04-13 23:57:00,
2013-04-13 19:00:00,67.9,56.1,29.75,East,81,3.0,3.0,66,0.00,,,0.00,VWS V14.01,2013-04-14 00:00:00,
2013-04-13 19:02:00,67.9,55.7,29.75,East,90,2.0,4.0,65,0.00,,,0.00,VWS V14.01,2013-04-14 00:02:00,
2013-04-13 19:05:00,68.0,55.4,29.75,ESE,118,4.0,6.0,64,0.00,,,0.00,VWS V14.01,2013-04-14 00:05:00,
2013-04-13 19:07:00,68.1,55.5,29.75,ESE,109,4.0,5.0,64,0.00,,,0.00,VWS V14.01,2013-04-14 00:07:00,
2013-04-13 19:10:00,68.1,55.5,29.75,East,97,3.0,5.0,64,0.00,,,0.00,VWS V14.01,2013-04-14 00:10:00,
2013-04-13 19:12:00,68.2,56.0,29.76,East,79,2.0,4.0,65,0.00,,,0.00,VWS V14.01,2013-04-14 00:12:00,
2013-04-13 19:15:00,68.2,55.6,29.76,East,80,2.0,4.0,64,0.00,,,0.00,VWS V14.01,2013-04-14 00:15:00,
2013-04-13 19:17:00,68.3,56.1,29.76,ENE,68,1.0,3.0,65,0.00,,,0.00,VWS V14.01,2013-04-14 00:17:00,
2013-04-13 19:20:00,68.3,55.7,29.76,ENE,64,2.0,4.0,64,0.00,,,0.00,VWS V14.01,2013-04-14 00:20:00,
2013-04-13 19:22:00,68.3,55.7,29.76,ENE,75,2.0,4.0,64,0.00,,,0.00,VWS V14.01,2013-04-14 00:22:00,
2013-04-13 19:25:00,68.2,55.6,29.76,ENE,75,3.0,4.0,64,0.00,,,0.00,VWS V14.01,2013-04-14 00:25:00,
2013-04-13 19:27:00,68.3,55.7,29.76,East,80,2.0,4.0,64,0.00,,,0.00,VWS V14.01,2013-04-14 00:27:00,
2013-04-13 19:30:00,68.3,55.7,29.76,East,87,2.0,4.0,64,0.00,,,0.00,VWS V14.01,2013-04-14 00:30:00,
2013-04-13 19:32:00,68.3,55.7,29.76,East,97,2.0,3.0,64,0.00,,,0.00,VWS V14.01,2013-04-14 00:32:00,
2013-04-13 19:35:00,68.1,55.5,29.76,East,98,2.0,3.0,64,0.00,,,0.00,VWS V14.01,2013-04-14 00:35:00,
2013-04-13 19:37:00,68.1,55.9,29.76,East,87,2.0,4.0,65,0.00,,,0.00,VWS V14.01,2013-04-14 00:37:00,
2013-04-13 19:40:00,68.1,55.5,29.76,East,91,2.0,5.0,64,0.00,,,0.00,VWS V14.01,2013-04-14 00:40:00,
2013-04-13 19:42:00,68.1,55.5,29.76,East,85,2.0,4.0,64,0.00,,,0.00,VWS V14.01,2013-04-14 00:42:00,
2013-04-13 19:45:00,68.0,55.8,29.76,East,92,4.0,4.0,65,0.00,,,0.00,VWS V14.01,2013-04-14 00:45:00,
2013-04-13 19:47:00,67.9,55.3,29.75,East,90,3.0,4.0,64,0.00,,,0.00,VWS V14.01,2013-04-14 00:47:00,
2013-04-13 19:50:00,67.9,55.3,29.75,ESE,102,4.0,4.0,64,0.00,,,0.00,VWS V14.01,2013-04-14 00:50:00,
2013-04-13 19:52:00,67.9,55.3,29.76,East,94,3.0,4.0,64,0.00,,,0.00,VWS V14.01,2013-04-14 00:52:00,
2013-04-13 19:55:00,67.8,55.2,29.76,East,92,1.0,4.0,64,0.00,,,0.00,VWS V14.01,2013-04-14 00:55:00,
2013-04-13 19:57:00,67.7,55.1,29.76,East,97,1.0,4.0,64,0.00,,,0.00,VWS V14.01,2013-04-14 00:57:00,
2013-04-13 20:00:00,67.6,55.0,29.75,East,89,3.0,5.0,64,0.00,,,0.00,VWS V14.01,2013-04-14 01:00:00,
2013-04-13 20:02:00,67.6,55.0,29.75,East,90,2.0,5.0,64,0.00,,,0.00,VWS V14.01,2013-04-14 01:02:00,
2013-04-13 20:05:00,67.6,54.6,29.75,ESE,111,4.0,5.0,63,0.00,,,0.00,VWS V14.01,2013-04-14 01:05:00,
2013-04-13 20:07:00,67.7,54.7,29.75,ESE,108,5.0,6.0,63,0.00,,,0.00,VWS V14.01,2013-04-14 01:07:00,
2013-04-13 20:10:00,67.7,54.7,29.75,East,92,3.0,6.0,63,0.00,,,0.00,VWS V14.01,2013-04-14 01:10:00,
2013-04-13 20:12:00,67.6,54.6,29.75,East,90,3.0,6.0,63,0.00,,,0.00,VWS V14.01,2013-04-14 01:12:00,
2013-04-13 20:15:00,67.6,54.6,29.75,East,84,2.0,6.0,63,0.00,,,0.00,VWS V14.01,2013-04-14 01:15:00,
2013-04-13 20:17:00,67.6,54.6,29.75,ENE,72,2.0,4.0,63,0.00,,,0.00,VWS V14.01,2013-04-14 01:17:00,
2013-04-13 20:20:00,67.6,54.6,29.75,East,84,3.0,4.0,63,0.00,,,0.00,VWS V14.01,2013-04-14 01:20:00,
2013-04-13 20:22:00,67.5,54.5,29.76,East,80,3.0,3.0,63,0.00,,,0.00,VWS V14.01,2013-04-14 01:22:00,
2013-04-13 20:25:00,67.4,54.8,29.76,ENE,64,2.0,3.0,64,0.00,,,0.00,VWS V14.01,2013-04-14 01:25:00,
2013-04-13 20:27:00,67.3,54.7,29.75,ENE,64,2.0,3.0,64,0.00,,,0.00,VWS V14.01,2013-04-14 01:27:00,
2013-04-13 20:30:00,67.2,54.6,29.75,ENE,77,2.0,3.0,64,0.00,,,0.00,VWS V14.01,2013-04-14 01:30:00,
2013-04-13 20:32:00,67.1,54.5,29.75,ENE,78,2.0,3.0,64,0.00,,,0.00,VWS V14.01,2013-04-14 01:32:00,
2013-04-13 20:35:00,67.0,54.9,29.75,East,82,2.0,3.0,65,0.00,,,0.00,VWS V14.01,2013-04-14 01:35:00,
2013-04-13 20:37:00,67.0,54.4,29.76,East,81,2.0,3.0,64,0.00,,,0.00,VWS V14.01,2013-04-14 01:37:00,
2013-04-13 20:40:00,66.9,54.8,29.76,ENE,74,2.0,3.0,65,0.00,,,0.00,VWS V14.01,2013-04-14 01:40:00,
2013-04-13 20:42:00,66.9,54.8,29.76,ENE,74,2.0,3.0,65,0.00,,,0.00,VWS V14.01,2013-04-14 01:42:00,
2013-04-13 20:45:00,66.7,54.6,29.76,ENE,74,2.0,3.0,65,0.00,,,0.00,VWS V14.01,2013-04-14 01:45:00,
2013-04-13 20:47:00,66.7,54.6,29.76,ENE,73,1.0,2.0,65,0.00,,,0.00,VWS V14.01,2013-04-14 01:47:00,
2013-04-13 20:50:00,66.6,54.5,29.76,ENE,73,2.0,2.0,65,0.00,,,0.00,VWS V14.01,2013-04-14 01:50:00,
2013-04-13 20:52:00,66.6,54.5,29.76,ENE,71,2.0,2.0,65,0.00,,,0.00,VWS V14.01,2013-04-14 01:52:00,
2013-04-13 20:55:00,66.7,54.6,29.76,ENE,63,1.0,3.0,65,0.00,,,0.00,VWS V14.01,2013-04-14 01:55:00,
2013-04-13 20:57:00,66.6,54.5,29.77,ENE,63,1.0,2.0,65,0.00,,,0.00,VWS V14.01,2013-04-14 01:57:00,
2013-04-13 21:00:00,66.6,54.1,29.77,ENE,57,1.0,2.0,64,0.00,,,0.00,VWS V14.01,2013-04-14 02:00:00,
2013-04-13 21:02:00,66.7,54.6,29.77,NE,54,0.0,2.0,65,0.00,,,0.00,VWS V14.01,2013-04-14 02:02:00,
2013-04-13 21:05:00,66.7,54.2,29.77,NE,49,1.0,2.0,64,0.00,,,0.00,VWS V14.01,2013-04-14 02:05:00,
2013-04-13 21:07:00,66.7,54.6,29.77,NE,49,2.0,2.0,65,0.00,,,0.00,VWS V14.01,2013-04-14 02:07:00,
2013-04-13 21:10:00,66.6,54.5,29.77,NE,49,1.0,2.0,65,0.00,,,0.00,VWS V14.01,2013-04-14 02:10:00,
2013-04-13 21:12:00,66.5,54.8,29.77,NE,56,2.0,3.0,66,0.00,,,0.00,VWS V14.01,2013-04-14 02:12:00,
2013-04-13 21:15:00,66.3,54.2,29.77,ENE,75,4.0,4.0,65,0.00,,,0.00,VWS V14.01,2013-04-14 02:15:00,
2013-04-13 21:17:00,66.3,54.2,29.77,ENE,68,3.0,4.0,65,0.00,,,0.00,VWS V14.01,2013-04-14 02:17:00,
2013-04-13 21:20:00,66.4,54.3,29.77,ENE,60,3.0,4.0,65,0.00,,,0.00,VWS V14.01,2013-04-14 02:20:00,
2013-04-13 21:22:00,66.4,54.3,29.77,ENE,74,4.0,4.0,65,0.00,,,0.00,VWS V14.01,2013-04-14 02:22:00,
2013-04-13 21:25:00,66.4,53.9,29.77,NE,54,3.0,4.0,64,0.00,,,0.00,VWS V14.01,2013-04-14 02:25:00,
2013-04-13 21:27:00,66.5,54.0,29.78,NE,50,2.0,3.0,64,0.00,,,0.00,VWS V14.01,2013-04-14 02:27:00,
2013-04-13 21:30:00,66.6,53.6,29.78,ENE,64,2.0,4.0,63,0.00,,,0.00,VWS V14.01,2013-04-14 02:30:00,
2013-04-13 21:32:00,66.7,54.2,29.78,ENE,73,2.0,3.0,64,0.00,,,0.00,VWS V14.01,2013-04-14 02:32:00,
2013-04-13 21:35:00,66.6,54.1,29.78,East,85,3.0,3.0,64,0.00,,,0.00,VWS V14.01,2013-04-14 02:35:00,
2013-04-13 21:37:00,66.5,54.0,29.78,East,90,4.0,4.0,64,0.00,,,0.00,VWS V14.01,2013-04-14 02:37:00,
2013-04-13 21:40:00,66.4,54.3,29.78,East,99,5.0,5.0,65,0.00,,,0.00,VWS V14.01,2013-04-14 02:40:00,
2013-04-13 21:42:00,66.4,53.9,29.78,East,85,4.0,5.0,64,0.00,,,0.00,VWS V14.01,2013-04-14 02:42:00,
2013-04-13 21:45:00,66.3,54.2,29.78,East,87,3.0,5.0,65,0.00,,,0.00,VWS V14.01,2013-04-14 02:45:00,
2013-04-13 21:47:00,66.4,53.9,29.79,East,82,3.0,5.0,64,0.00,,,0.00,VWS V14.01,2013-04-14 02:47:00,
2013-04-13 21:50:00,66.5,53.5,29.79,ESE,105,3.0,5.0,63,0.00,,,0.00,VWS V14.01,2013-04-14 02:50:00,
2013-04-13 21:52:00,66.6,53.6,29.79,East,99,2.0,5.0,63,0.00,,,0.00,VWS V14.01,2013-04-14 02:52:00,
2013-04-13 21:55:00,66.7,53.3,29.79,East,91,5.0,8.0,62,0.00,,,0.00,VWS V14.01,2013-04-14 02:55:00,
2013-04-13 21:57:00,66.9,53.0,29.79,East,95,5.0,8.0,61,0.00,,,0.00,VWS V14.01,2013-04-14 02:57:00,
2013-04-13 22:00:00,67.1,53.2,29.79,ESE,104,5.0,8.0,61,0.00,,,0.00,VWS V14.01,2013-04-14 03:00:00,
2013-04-13 22:02:00,67.1,53.2,29.79,East,84,3.0,8.0,61,0.00,,,0.00,VWS V14.01,2013-04-14 03:02:00,
2013-04-13 22:05:00,67.1,53.2,29.79,ESE,105,6.0,8.0,61,0.00,,,0.00,VWS V14.01,2013-04-14 03:05:00,
2013-04-13 22:07:00,67.1,53.7,29.79,East,99,4.0,9.0,62,0.00,,,0.00,VWS V14.01,2013-04-14 03:07:00,
2013-04-13 22:10:00,67.0,53.6,29.79,East,90,5.0,9.0,62,0.00,,,0.00,VWS V14.01,2013-04-14 03:10:00,
2013-04-13 22:12:00,67.0,53.6,29.79,ESE,112,5.0,7.0,62,0.00,,,0.00,VWS V14.01,2013-04-14 03:12:00,
2013-04-13 22:15:00,66.9,53.5,29.79,SE,126,6.0,10.0,62,0.00,,,0.00,VWS V14.01,2013-04-14 03:15:00,
2013-04-13 22:17:00,66.9,53.5,29.79,ESE,118,7.0,11.0,62,0.00,,,0.00,VWS V14.01,2013-04-14 03:17:00,
2013-04-13 22:20:00,66.9,53.9,29.79,ESE,112,5.0,11.0,63,0.00,,,0.00,VWS V14.01,2013-04-14 03:20:00,
2013-04-13 22:22:00,66.7,53.7,29.79,ESE,123,6.0,8.0,63,0.00,,,0.00,VWS V14.01,2013-04-14 03:22:00,
2013-04-13 22:25:00,66.6,53.6,29.80,ESE,111,6.0,8.0,63,0.00,,,0.00,VWS V14.01,2013-04-14 03:25:00,
2013-04-13 22:27:00,66.4,53.9,29.80,SE,132,4.0,8.0,64,0.00,,,0.00,VWS V14.01,2013-04-14 03:27:00,
2013-04-13 22:30:00,66.3,53.8,29.80,ESE,119,5.0,8.0,64,0.00,,,0.00,VWS V14.01,2013-04-14 03:30:00,
2013-04-13 22:32:00,66.4,53.9,29.80,ESE,112,5.0,10.0,64,0.00,,,0.00,VWS V14.01,2013-04-14 03:32:00,
2013-04-13 22:35:00,66.4,53.9,29.80,SE,125,8.0,10.0,64,0.00,,,0.00,VWS V14.01,2013-04-14 03:35:00,
2013-04-13 22:37:00,66.4,54.3,29.80,ESE,115,6.0,8.0,65,0.00,,,0.00,VWS V14.01,2013-04-14 03:37:00,
2013-04-13 22:40:00,66.4,54.3,29.80,SE,135,7.0,8.0,65,0.00,,,0.00,VWS V14.01,2013-04-14 03:40:00,
2013-04-13 22:42:00,66.4,54.3,29.80,ESE,116,5.0,10.0,65,0.00,,,0.00,VWS V14.01,2013-04-14 03:42:00,
2013-04-13 22:45:00,66.3,54.2,29.80,ESE,120,4.0,10.0,65,0.00,,,0.00,VWS V14.01,2013-04-14 03:45:00,
2013-04-13 22:47:00,66.3,54.2,29.80,SE,125,4.0,7.0,65,0.00,,,0.00,VWS V14.01,2013-04-14 03:47:00,
2013-04-13 22:50:00,66.2,54.1,29.80,ESE,116,4.0,7.0,65,0.00,,,0.00,VWS V14.01,2013-04-14 03:50:00,
2013-04-13 22:52:00,66.1,54.0,29.80,ESE,120,4.0,5.0,65,0.00,,,0.00,VWS V14.01,2013-04-14 03:52:00,
2013-04-13 22:55:00,66.1,54.4,29.80,ESE,113,6.0,6.0,66,0.00,,,0.00,VWS V14.01,2013-04-14 03:55:00,
2013-04-13 22:57:00,66.1,54.4,29.80,ESE,116,4.0,7.0,66,0.00,,,0.00,VWS V14.01,2013-04-14 03:57:00,
2013-04-13 23:00:00,66.0,54.3,29.80,ESE,120,4.0,7.0,66,0.00,,,0.00,VWS V14.01,2013-04-14 04:00:00,
2013-04-13 23:05:00,65.9,54.2,29.80,SE,132,7.0,8.0,66,0.00,,,0.00,VWS V14.01,2013-04-14 04:05:00,
2013-04-13 23:10:00,65.9,54.2,29.80,ESE,123,10.0,11.0,66,0.00,,,0.00,VWS V14.01,2013-04-14 04:10:00,
2013-04-13 23:15:00,66.0,54.3,29.80,SE,132,8.0,11.0,66,0.00,,,0.00,VWS V14.01,2013-04-14 04:15:00,
2013-04-13 23:20:00,65.8,54.1,29.79,SE,138,8.0,10.0,66,0.00,,,0.00,VWS V14.01,2013-04-14 04:20:00,
2013-04-13 23:25:00,65.7,54.5,29.79,ESE,112,8.0,11.0,67,0.00,,,0.00,VWS V14.01,2013-04-14 04:25:00,
2013-04-13 23:30:00,65.5,54.3,29.79,SE,126,9.0,11.0,67,0.00,,,0.00,VWS V14.01,2013-04-14 04:30:00,
2013-04-13 23:35:00,65.5,54.3,29.78,ESE,115,8.0,13.0,67,0.00,,,0.00,VWS V14.01,2013-04-14 04:35:00,
2013-04-13 23:40:00,65.4,54.2,29.79,SSE,149,8.0,10.0,67,0.00,,,0.00,VWS V14.01,2013-04-14 04:40:00,
2013-04-13 23:45:00,65.3,54.5,29.79,ESE,122,4.0,8.0,68,0.00,,,0.00,VWS V14.01,2013-04-14 04:45:00,
2013-04-13 23:50:00,65.2,54.4,29.79,SE,132,6.0,13.0,68,0.00,,,0.00,VWS V14.01,2013-04-14 04:50:00,
2013-04-13 23:55:00,65.0,54.2,29.78,SSE,157,7.0,12.0,68,0.00,,,0.00,VWS V14.01,2013-04-14 04:55:00,